Skip Page Navigation
NASA JPL Caltech
NASA Logo - Jet Propulsion Laboratory + View the NASA Portal
+ Near-Earth Object (NEO) Program
Search JPL
JPL Home Earth Solar System Stars & Galaxies Technology
JPL Solar System Dynamics
BODIES ORBITS EPHEMERIDES TOOLS PHYSICAL DATA DISCOVERY FAQ SITE MAP
JPL Small-Body Database Browser
Search: [ help ]  
(2003 YX1)
Classification: Aten [NEO, PHA]          SPK-ID: 3170203
Ephemeris | Orbit Diagram | Orbital Elements | Physical Parameters | Close-Approach Data ]

[ hide orbit diagram ]
Orbit Diagram
Note: Make sure you have Java enabled on your browser to see the applet. This applet is provided as a 3D orbit visualization tool. The applet was implemented using 2-body methods, and hence should not be used for determining accurate long-term trajectories (over several years or decades) or planetary encounter circumstances. For accurate long-term ephemerides, please instead use our Horizons system.
Orbit Viewer

Additional Notes: the orbits shown in the applet are color coded. The planets are white lines, and the asteroid/comet is a blue line. The bright white line indicates the portion of the orbit that is above the ecliptic plane, and the darker portion is below the ecliptic plane. Likewise for the asteroid/comet orbit, the light blue indicates the portion above the ecliptic plane, and the dark blue the portion below the ecliptic plane.

Orbit Viewer applet originally written and kindly provided by Osamu Ajiki (AstroArts), and further modified by Ron Baalke (JPL).


Orbital Elements at Epoch 2456400.5 (2013-Apr-18.0) TDB
Reference: JPL 38 (heliocentric ecliptic J2000)
 Element Value Uncertainty (1-sigma)   Units 
e .2669729344251188 6.549e-07  
a .8796753627348454 2.5891e-08 AU
q .6448258498040429 5.9498e-07 AU
i 5.757263575461701 2.1188e-05 deg
node 89.7075364073269 8.9735e-06 deg
peri 223.0665185440638 2.8878e-05 deg
M 220.3537607580599 7.8658e-05 deg
tp 2456517.398466390238
(2013-Aug-12.89846639)
7.0805e-05 JED
period 301.3575455302826
0.83
1.3304e-05
3.642e-08
d
yr
n 1.194594279584164 5.2739e-08 deg/d
Q 1.114524875665648 3.2803e-08 AU
  Orbit Determination Parameters
   # obs. used (total)      312  
   data-arc span      1898 days (5.20 yr)  
   first obs. used      2003-12-19  
   last obs. used      2009-02-28  
   planetary ephem.      DE405  
   SB-pert. ephem.      SB405-CPV-2  
   condition code      1  
   fit RMS      .55146  
   data source      ORB  
   producer      Otto Matic  
   solution date      2011-Sep-14 19:53:34  

Additional Information
 Earth MOID = .0116391 AU 
 T_jup = 6.704 
[ show covariance matrix ]

Ephemeris | Orbit Diagram | Orbital Elements | Physical Parameters | Close-Approach Data ]

Physical Parameter Table
Parameter Symbol Value Units Sigma Reference Notes
absolute magnitude H 20.817 mag .5047 38 autocmod 2.5a

[ show close-approach data ]
Ephemeris | Orbit Diagram | Orbital Elements | Physical Parameters | Close-Approach Data ]
ABOUT SSD CREDITS/AWARDS PRIVACY/COPYRIGHT GLOSSARY LINKS
FirstGov 2013-May-23 07:18 UT
(server date/time)  
NASA Home Page
Site Manager:   Donald K. Yeomans
Webmaster  Alan B. Chamberlin